Zurück zum Katalog

WESTFORD NEEDLES

AktivPO
NORAD 2375·DEBRIS·🇺🇸 United States

Gestartet May 9, 1963 von Vandenberg Space Force Base

Loading…

Nächste Überflüge (nächste 24 Stunden)

TLE

AktuellSource: Space-Track

Epoche: Sep 12, 2026, 09:15 UTC

1 02375U 63014W   26255.38601980  .00000079  00000-0  77164-2 0  9999
2 02375  86.6028  40.7215 1628476  79.9612 298.0369  8.74988249379056

Verfolge WESTFORD NEEDLES in Echtzeit mit AllMySat

Download on the App Store